THY6590 LTFM-LKPR

Flight info

Callsign THY6590
Flight time 1h 56m
Altitude 38000
Route IBLAX P727 BGS L622 GONGO DCT KOMAN DCT BUXLE DCT BUDOP DCT AMRAX DCT LALES DCT KATQA DCT TUMKA DCT VLM
Aircraft B77L/H-SDE1E2E3FGHIJ2J3J4J5M1RWXY/LB1D1

Departure

Time 2026-05-07 09:42
Airport İstanbul Airport (LTFM)

Arrival

Time 2026-05-07 11:39
Airport Václav Havel Airport Prague (LKPR)
Time Latitude Longitude Altitude Speed Heading
2026-05-07 08:14 41.27508 28.72095 304 ft 0 kts 269°
2026-05-07 09:29 41.27508 28.72097 304 ft 2 kts 269°
2026-05-07 09:29 41.27508 28.72124 304 ft 3 kts 269°
2026-05-07 09:30 41.27509 28.72150 303 ft 3 kts 270°
2026-05-07 09:30 41.27508 28.72177 302 ft 3 kts 275°
2026-05-07 09:30 41.27507 28.72195 304 ft 3 kts 275°
2026-05-07 09:30 41.27505 28.72221 305 ft 3 kts 265°
2026-05-07 09:31 41.27509 28.72244 304 ft 3 kts 242°
2026-05-07 09:31 41.27517 28.72263 304 ft 3 kts 219°
2026-05-07 09:31 41.27528 28.72272 304 ft 3 kts 182°
2026-05-07 09:31 41.27548 28.72271 304 ft 3 kts 176°
2026-05-07 09:32 41.27556 28.72271 305 ft 0 kts 179°
2026-05-07 09:35 41.27528 28.72271 305 ft 7 kts 179°
2026-05-07 09:35 41.27453 28.72273 309 ft 14 kts 179°
2026-05-07 09:35 41.27355 28.72275 312 ft 14 kts 179°
2026-05-07 09:35 41.27259 28.72277 312 ft 14 kts 179°
2026-05-07 09:36 41.27162 28.72278 313 ft 14 kts 179°
2026-05-07 09:36 41.27066 28.72280 316 ft 14 kts 179°
2026-05-07 09:36 41.26969 28.72283 317 ft 14 kts 179°
2026-05-07 09:36 41.26872 28.72284 316 ft 14 kts 179°
2026-05-07 09:37 41.26775 28.72286 316 ft 14 kts 179°
2026-05-07 09:37 41.26678 28.72288 317 ft 14 kts 179°
2026-05-07 09:37 41.26604 28.72289 317 ft 8 kts 179°
2026-05-07 09:37 41.26552 28.72294 318 ft 4 kts 169°
2026-05-07 09:38 41.26550 28.72295 318 ft 0 kts 169°
2026-05-07 09:38 41.26541 28.72297 318 ft 0 kts 167°
2026-05-07 09:38 41.26536 28.72309 318 ft 4 kts 118°
2026-05-07 09:39 41.26544 28.72349 319 ft 5 kts 67°
2026-05-07 09:39 41.26556 28.72388 322 ft 5 kts 71°
2026-05-07 09:39 41.26565 28.72428 324 ft 5 kts 73°
2026-05-07 09:39 41.26575 28.72469 325 ft 5 kts 72°
2026-05-07 09:40 41.26580 28.72506 327 ft 4 kts 76°
2026-05-07 09:40 41.26597 28.72516 325 ft 1 kts
2026-05-07 09:40 41.26607 28.72516 325 ft 1 kts 359°
2026-05-07 09:41 41.26612 28.72516 326 ft 6 kts 359°
2026-05-07 09:41 41.26822 28.72511 324 ft 63 kts 359°
2026-05-07 09:42 41.27477 28.72498 319 ft 125 kts 359°
2026-05-07 09:42 41.28518 28.72482 307 ft 173 kts
2026-05-07 09:42 41.29774 28.72467 665 ft 179 kts
2026-05-07 09:42 41.31036 28.72441 1214 ft 184 kts
2026-05-07 09:43 41.32334 28.72440 1735 ft 191 kts 358°
2026-05-07 09:43 41.33682 28.72438 2333 ft 194 kts 359°
2026-05-07 09:43 41.35021 28.72486 2943 ft 191 kts 359°
2026-05-07 09:43 41.36354 28.72521 3441 ft 195 kts 358°
2026-05-07 09:44 41.37744 28.72551 3789 ft 205 kts 356°
2026-05-07 09:44 41.39215 28.72241 3927 ft 226 kts 336°
2026-05-07 09:44 41.40606 28.71256 4477 ft 227 kts 326°
2026-05-07 09:44 41.42032 28.70130 4713 ft 249 kts 329°
2026-05-07 09:45 41.43585 28.69005 5276 ft 257 kts 330°
2026-05-07 09:45 41.45177 28.67864 5956 ft 261 kts 330°
2026-05-07 09:45 41.46778 28.66713 6738 ft 261 kts 330°
2026-05-07 09:45 41.48382 28.65553 7453 ft 264 kts 330°
2026-05-07 09:46 41.49984 28.64390 8091 ft 268 kts 330°
2026-05-07 09:46 41.51627 28.63192 8774 ft 271 kts 330°
2026-05-07 09:46 41.53287 28.61978 9470 ft 273 kts 330°
2026-05-07 09:46 41.54962 28.60749 10146 ft 276 kts 331°
2026-05-07 09:47 41.56681 28.59486 10762 ft 280 kts 331°
2026-05-07 09:47 41.58375 28.58240 11408 ft 283 kts 331°
2026-05-07 09:47 41.60115 28.56958 12124 ft 287 kts 331°
2026-05-07 09:47 41.61871 28.55664 12874 ft 289 kts 332°
2026-05-07 09:48 41.63647 28.54352 13621 ft 293 kts 332°
2026-05-07 09:48 41.65444 28.53025 14305 ft 297 kts 332°
2026-05-07 09:48 41.67262 28.51681 15001 ft 298 kts 332°
2026-05-07 09:48 41.69077 28.50338 15722 ft 299 kts 332°
2026-05-07 09:49 41.70905 28.48984 16415 ft 301 kts 332°
2026-05-07 09:49 41.72743 28.47622 17111 ft 303 kts 332°
2026-05-07 09:49 41.74595 28.46249 17752 ft 308 kts 332°
2026-05-07 09:49 41.76519 28.44822 17990 ft 326 kts 332°
2026-05-07 09:50 41.78563 28.43306 18151 ft 346 kts 332°
2026-05-07 09:50 41.80697 28.41721 18300 ft 365 kts 332°
2026-05-07 09:50 41.83011 28.40000 18449 ft 384 kts 332°
2026-05-07 09:50 41.85351 28.38258 18793 ft 395 kts 332°
2026-05-07 09:51 41.87780 28.36446 19312 ft 401 kts 331°
2026-05-07 09:51 41.90228 28.34620 19954 ft 404 kts 331°
2026-05-07 09:51 41.92688 28.32784 20653 ft 405 kts 331°
2026-05-07 09:51 41.95134 28.30925 21360 ft 405 kts 328°
2026-05-07 09:52 41.97418 28.28652 21949 ft 410 kts 319°
2026-05-07 09:52 41.99466 28.25963 22505 ft 414 kts 313°
2026-05-07 09:52 42.01274 28.22927 23127 ft 418 kts 306°
2026-05-07 09:52 42.02911 28.19680 23750 ft 420 kts 305°
2026-05-07 09:53 42.04530 28.16403 24272 ft 422 kts 305°
2026-05-07 09:53 42.06163 28.13097 24782 ft 425 kts 305°
2026-05-07 09:53 42.07807 28.09789 25266 ft 427 kts 305°
2026-05-07 09:53 42.09470 28.06459 25766 ft 429 kts 305°
2026-05-07 09:54 42.11147 28.03114 26254 ft 432 kts 305°
2026-05-07 09:54 42.12834 27.99751 26734 ft 434 kts 305°
2026-05-07 09:54 42.14529 27.96371 27216 ft 436 kts 305°
2026-05-07 09:54 42.16235 27.92966 27678 ft 439 kts 305°
2026-05-07 09:55 42.17946 27.89547 28116 ft 442 kts 305°
2026-05-07 09:55 42.19675 27.86104 28546 ft 444 kts 307°
2026-05-07 09:55 42.21643 27.82895 28965 ft 446 kts 315°
2026-05-07 09:55 42.23927 27.80048 29355 ft 448 kts 320°
2026-05-07 09:56 42.26407 27.77496 29734 ft 450 kts 326°
2026-05-07 09:56 42.29120 27.75354 30081 ft 453 kts 330°
2026-05-07 09:56 42.31911 27.73347 30384 ft 456 kts 331°
2026-05-07 09:56 42.34722 27.71354 30662 ft 458 kts 331°
2026-05-07 09:57 42.37542 27.69341 30930 ft 459 kts 330°
2026-05-07 09:57 42.40373 27.67297 31193 ft 461 kts 330°
2026-05-07 09:57 42.43204 27.65230 31449 ft 462 kts 330°
2026-05-07 09:57 42.46030 27.63155 31803 ft 461 kts 330°
2026-05-07 09:58 42.48805 27.61111 32179 ft 460 kts 330°
2026-05-07 09:58 42.51610 27.59043 32545 ft 458 kts 330°
2026-05-07 09:58 42.54413 27.56977 32871 ft 458 kts 330°
2026-05-07 09:58 42.57208 27.54912 33185 ft 457 kts 330°
2026-05-07 09:59 42.59927 27.52691 33511 ft 454 kts 325°
2026-05-07 09:59 42.62483 27.50221 33768 ft 449 kts 323°
2026-05-07 09:59 42.65001 27.47725 34022 ft 446 kts 323°
2026-05-07 10:00 42.69997 27.42757 34121 ft 443 kts 323°
2026-05-07 10:00 42.75001 27.37804 34129 ft 448 kts 323°
2026-05-07 10:01 42.80087 27.32782 34128 ft 454 kts 323°
2026-05-07 10:01 42.85181 27.27749 34117 ft 455 kts 323°
2026-05-07 10:02 42.90310 27.22667 34088 ft 456 kts 323°
2026-05-07 10:02 42.95438 27.17576 34095 ft 455 kts 323°
2026-05-07 10:03 43.00542 27.12498 34101 ft 454 kts 323°
2026-05-07 10:03 43.05631 27.07423 34097 ft 452 kts 323°
2026-05-07 10:04 43.10724 27.02345 34084 ft 452 kts 324°
2026-05-07 10:04 43.15912 26.97568 34082 ft 452 kts 326°
2026-05-07 10:05 43.21181 26.92877 34080 ft 451 kts 326°
2026-05-07 10:05 43.26437 26.88146 34083 ft 451 kts 325°
2026-05-07 10:06 43.31670 26.83382 34079 ft 452 kts 325°
2026-05-07 10:06 43.36917 26.78584 34065 ft 453 kts 325°
2026-05-07 10:07 43.42130 26.73806 34081 ft 453 kts 325°
2026-05-07 10:07 43.47392 26.68975 34076 ft 454 kts 325°
2026-05-07 10:08 43.52662 26.64127 34065 ft 455 kts 325°
2026-05-07 10:08 43.57933 26.59267 34062 ft 456 kts 325°
2026-05-07 10:09 43.63180 26.54419 34056 ft 456 kts 325°
2026-05-07 10:09 43.68457 26.49533 34052 ft 457 kts 324°
2026-05-07 10:10 43.73737 26.44634 34053 ft 457 kts 324°
2026-05-07 10:10 43.79020 26.39721 34045 ft 457 kts 324°
2026-05-07 10:11 43.84297 26.34803 34049 ft 457 kts 324°
2026-05-07 10:11 43.89570 26.29878 34052 ft 457 kts 324°
2026-05-07 10:12 43.94843 26.24943 34047 ft 457 kts 324°
2026-05-07 10:12 43.99769 26.19498 34040 ft 455 kts 315°
2026-05-07 10:13 44.04101 26.13074 34054 ft 455 kts 311°
2026-05-07 10:13 44.08350 26.06555 34052 ft 455 kts 311°
2026-05-07 10:14 44.12616 26.00028 34056 ft 456 kts 311°
2026-05-07 10:14 44.16896 25.93496 34051 ft 457 kts 311°
2026-05-07 10:15 44.21181 25.86953 34062 ft 457 kts 311°
2026-05-07 10:15 44.25467 25.80394 34051 ft 458 kts 311°
2026-05-07 10:16 44.29755 25.73816 34055 ft 458 kts 311°
2026-05-07 10:16 44.34043 25.67224 34050 ft 459 kts 311°
2026-05-07 10:17 44.38332 25.60613 34059 ft 459 kts 311°
2026-05-07 10:17 44.41895 25.55109 34055 ft 459 kts 311°
2026-05-07 10:18 44.46882 25.47387 34054 ft 460 kts 311°
2026-05-07 10:18 44.50477 25.41809 34054 ft 460 kts 311°
2026-05-07 10:19 44.54732 25.35190 34063 ft 460 kts 311°
2026-05-07 10:19 44.59014 25.28515 34053 ft 460 kts 311°
2026-05-07 10:20 44.63294 25.21827 34058 ft 460 kts 311°
2026-05-07 10:20 44.67565 25.15137 34058 ft 460 kts 311°
2026-05-07 10:21 44.71832 25.08437 34071 ft 460 kts 310°
2026-05-07 10:21 44.76099 25.01721 34058 ft 460 kts 310°
2026-05-07 10:22 44.80358 24.94998 34057 ft 460 kts 310°
2026-05-07 10:22 44.84591 24.88305 34058 ft 460 kts 310°
2026-05-07 10:23 44.88848 24.81555 34061 ft 460 kts 310°
2026-05-07 10:23 44.93096 24.74804 34049 ft 460 kts 310°
2026-05-07 10:24 44.97340 24.68043 34063 ft 460 kts 310°
2026-05-07 10:24 45.01576 24.61279 34056 ft 460 kts 310°
2026-05-07 10:25 45.05818 24.54488 34066 ft 460 kts 310°
2026-05-07 10:25 45.10050 24.47696 34062 ft 460 kts 310°
2026-05-07 10:26 45.14283 24.40889 34065 ft 460 kts 310°
2026-05-07 10:26 45.18511 24.34071 34056 ft 461 kts 310°
2026-05-07 10:27 45.22712 24.27279 34062 ft 461 kts 310°
2026-05-07 10:27 45.26937 24.20435 34062 ft 460 kts 310°
2026-05-07 10:28 45.31155 24.13581 34058 ft 461 kts 309°
2026-05-07 10:28 45.35378 24.06703 34069 ft 462 kts 309°
2026-05-07 10:29 45.39598 23.99814 34066 ft 462 kts 309°
2026-05-07 10:29 45.43822 23.92903 34064 ft 463 kts 309°
2026-05-07 10:30 45.50148 23.82519 34045 ft 463 kts 309°
2026-05-07 10:30 45.54357 23.75585 34070 ft 463 kts 309°
2026-05-07 10:31 45.58570 23.68631 34073 ft 463 kts 309°
2026-05-07 10:31 45.62750 23.61714 34048 ft 463 kts 309°
2026-05-07 10:32 45.66950 23.54746 34047 ft 462 kts 309°
2026-05-07 10:32 45.71144 23.47772 34065 ft 463 kts 309°
2026-05-07 10:33 45.75339 23.40775 34051 ft 463 kts 309°
2026-05-07 10:33 45.79532 23.33763 34038 ft 463 kts 309°
2026-05-07 10:34 45.83720 23.26747 34043 ft 463 kts 309°
2026-05-07 10:34 45.87911 23.19705 34051 ft 463 kts 309°
2026-05-07 10:35 45.92091 23.12665 34042 ft 463 kts 309°
2026-05-07 10:35 45.96236 23.05665 34048 ft 463 kts 308°
2026-05-07 10:36 46.00411 22.98596 34053 ft 464 kts 308°
2026-05-07 10:36 46.04580 22.91518 34054 ft 464 kts 308°
2026-05-07 10:37 46.08747 22.84427 34058 ft 464 kts 308°
2026-05-07 10:37 46.12907 22.77331 34060 ft 464 kts 308°
2026-05-07 10:38 46.17049 22.70246 34060 ft 465 kts 308°
2026-05-07 10:38 46.21210 22.63111 34056 ft 465 kts 308°
2026-05-07 10:39 46.25371 22.55956 34061 ft 465 kts 308°
2026-05-07 10:39 46.29526 22.48792 34056 ft 465 kts 308°
2026-05-07 10:40 46.33678 22.41617 34055 ft 465 kts 308°
2026-05-07 10:40 46.37831 22.34419 34054 ft 466 kts 307°
2026-05-07 10:41 46.41984 22.27206 34052 ft 466 kts 307°
2026-05-07 10:41 46.45931 22.19848 34058 ft 464 kts 301°
2026-05-07 10:42 46.49025 22.11651 34065 ft 462 kts 293°
2026-05-07 10:42 46.51718 22.03165 34049 ft 463 kts 293°
2026-05-07 10:43 46.54422 21.94655 34046 ft 464 kts 293°
2026-05-07 10:43 46.57127 21.86203 34046 ft 464 kts 293°
2026-05-07 10:44 46.59852 21.77690 34044 ft 464 kts 293°
2026-05-07 10:44 46.62573 21.69156 34036 ft 465 kts 292°
2026-05-07 10:45 46.65294 21.60596 34040 ft 466 kts 292°
2026-05-07 10:45 46.68263 21.52203 34039 ft 468 kts 300°
2026-05-07 10:46 46.72170 21.44582 34037 ft 472 kts 309°
2026-05-07 10:46 46.76776 21.37715 34033 ft 474 kts 312°
2026-05-07 10:47 46.81480 21.30943 34029 ft 475 kts 312°
2026-05-07 10:47 46.86144 21.24167 34025 ft 475 kts 311°
2026-05-07 10:48 46.90811 21.17310 34028 ft 475 kts 311°
2026-05-07 10:48 46.95464 21.10434 34004 ft 475 kts 311°
2026-05-07 10:49 47.00113 21.03542 34007 ft 475 kts 311°
2026-05-07 10:49 47.04754 20.96648 34004 ft 475 kts 311°
2026-05-07 10:50 47.09398 20.89733 34023 ft 475 kts 311°
2026-05-07 10:50 47.14034 20.82811 34002 ft 476 kts 311°
2026-05-07 10:51 47.18644 20.75910 34011 ft 476 kts 311°
2026-05-07 10:51 47.23276 20.68957 34008 ft 476 kts 311°
2026-05-07 10:52 47.27911 20.61982 34003 ft 477 kts 311°
2026-05-07 10:52 47.32557 20.54971 34003 ft 477 kts 311°
2026-05-07 10:53 47.35788 20.50084 33996 ft 477 kts 311°
2026-05-07 10:54 47.39223 20.44880 34004 ft 477 kts 311°
2026-05-07 10:54 47.43856 20.37844 34000 ft 478 kts 311°
2026-05-07 10:55 47.48455 20.30839 34003 ft 478 kts 311°
2026-05-07 10:55 47.53085 20.23768 34005 ft 478 kts 311°
2026-05-07 10:56 47.57713 20.16682 33998 ft 479 kts 311°
2026-05-07 10:56 47.62339 20.09580 33998 ft 479 kts 310°
2026-05-07 10:57 47.66955 20.02473 33996 ft 478 kts 310°
2026-05-07 10:57 47.71569 19.95350 33987 ft 478 kts 310°
2026-05-07 10:58 47.76177 19.88217 33989 ft 478 kts 310°
2026-05-07 10:58 47.80789 19.81059 33989 ft 479 kts 310°
2026-05-07 10:59 47.85386 19.73903 33979 ft 479 kts 310°
2026-05-07 10:59 47.89961 19.66761 33979 ft 479 kts 310°
2026-05-07 11:00 47.94555 19.59572 33981 ft 479 kts 310°
2026-05-07 11:00 47.99153 19.52355 33974 ft 479 kts 310°
2026-05-07 11:01 48.03743 19.45133 33972 ft 479 kts 310°
2026-05-07 11:01 48.08323 19.37887 33967 ft 479 kts 309°
2026-05-07 11:02 48.12405 19.30071 33973 ft 475 kts 302°
2026-05-07 11:02 48.16220 19.21995 33974 ft 475 kts 302°
2026-05-07 11:03 48.20039 19.13902 33970 ft 476 kts 302°
2026-05-07 11:03 48.23882 19.05812 33967 ft 477 kts 302°
2026-05-07 11:04 48.27715 18.97753 33967 ft 477 kts 302°
2026-05-07 11:04 48.31563 18.89639 33962 ft 477 kts 302°
2026-05-07 11:05 48.35405 18.81512 33969 ft 477 kts 302°
2026-05-07 11:05 48.39253 18.73343 33973 ft 478 kts 302°
2026-05-07 11:06 48.43091 18.65175 33974 ft 478 kts 302°
2026-05-07 11:06 48.46276 18.58376 33977 ft 478 kts 302°
2026-05-07 11:07 48.50106 18.50177 33978 ft 479 kts 302°
2026-05-07 11:07 48.53938 18.41945 33974 ft 479 kts 302°
2026-05-07 11:08 48.57766 18.33701 33981 ft 480 kts 301°
2026-05-07 11:08 48.61590 18.25439 33977 ft 479 kts 301°
2026-05-07 11:09 48.65406 18.17172 33973 ft 479 kts 301°
2026-05-07 11:09 48.69206 18.08912 33985 ft 478 kts 301°
2026-05-07 11:10 48.72980 18.00682 33991 ft 478 kts 301°
2026-05-07 11:10 48.76767 17.92398 33994 ft 478 kts 301°
2026-05-07 11:11 48.80553 17.84093 33977 ft 478 kts 301°
2026-05-07 11:11 48.84322 17.75800 33981 ft 478 kts 301°
2026-05-07 11:12 48.87840 17.67269 33969 ft 473 kts 293°
2026-05-07 11:12 48.90779 17.58334 33978 ft 473 kts 292°
2026-05-07 11:13 48.93704 17.49369 33965 ft 473 kts 292°
2026-05-07 11:13 48.96657 17.40417 33974 ft 473 kts 292°
2026-05-07 11:14 48.99612 17.31468 33968 ft 473 kts 292°
2026-05-07 11:14 49.02532 17.22560 33972 ft 473 kts 291°
2026-05-07 11:15 49.05337 17.13505 33968 ft 472 kts 290°
2026-05-07 11:15 49.08078 17.04425 33975 ft 471 kts 290°
2026-05-07 11:16 49.10828 16.95336 33970 ft 471 kts 290°
2026-05-07 11:16 49.13580 16.86258 33971 ft 471 kts 290°
2026-05-07 11:17 49.16333 16.77155 33743 ft 474 kts 290°
2026-05-07 11:17 49.17725 16.72528 32923 ft 481 kts 290°
2026-05-07 11:17 49.19121 16.67890 31990 ft 480 kts 289°
2026-05-07 11:18 49.20515 16.63254 31191 ft 478 kts 289°
2026-05-07 11:18 49.21878 16.58719 30571 ft 472 kts 289°
2026-05-07 11:18 49.23257 16.54119 29945 ft 467 kts 289°
2026-05-07 11:18 49.24602 16.49623 29260 ft 462 kts 289°
2026-05-07 11:19 49.25906 16.45247 28671 ft 456 kts 289°
2026-05-07 11:19 49.27216 16.40848 28082 ft 451 kts 289°
2026-05-07 11:19 49.28509 16.36495 27523 ft 446 kts 289°
2026-05-07 11:19 49.29785 16.32190 26967 ft 441 kts 288°
2026-05-07 11:20 49.31046 16.27927 26424 ft 437 kts 288°
2026-05-07 11:20 49.32292 16.23709 25883 ft 433 kts 288°
2026-05-07 11:20 49.33529 16.19511 25363 ft 430 kts 288°
2026-05-07 11:20 49.34755 16.15344 24834 ft 427 kts 288°
2026-05-07 11:21 49.35974 16.11191 24300 ft 425 kts 288°
2026-05-07 11:21 49.37180 16.07077 23784 ft 422 kts 288°
2026-05-07 11:21 49.38382 16.02976 23214 ft 420 kts 288°
2026-05-07 11:21 49.39575 15.98898 22651 ft 417 kts 288°
2026-05-07 11:22 49.40746 15.94910 22117 ft 414 kts 289°
2026-05-07 11:22 49.42026 15.90955 21598 ft 411 kts 291°
2026-05-07 11:22 49.43346 15.87079 21109 ft 409 kts 292°
2026-05-07 11:22 49.44673 15.83240 20612 ft 405 kts 292°
2026-05-07 11:23 49.45991 15.79424 20125 ft 402 kts 293°
2026-05-07 11:23 49.47294 15.75635 19641 ft 399 kts 293°
2026-05-07 11:23 49.48581 15.71864 19155 ft 396 kts 293°
2026-05-07 11:23 49.49852 15.68128 18701 ft 393 kts 293°
2026-05-07 11:24 49.51116 15.64405 18201 ft 391 kts 294°
2026-05-07 11:24 49.52370 15.60698 17659 ft 389 kts 294°
2026-05-07 11:24 49.53612 15.57023 17136 ft 386 kts 294°
2026-05-07 11:24 49.54843 15.53372 16654 ft 383 kts 294°
2026-05-07 11:25 49.56061 15.49752 16176 ft 379 kts 294°
2026-05-07 11:25 49.57269 15.46157 15691 ft 376 kts 293°
2026-05-07 11:25 49.58467 15.42591 15232 ft 372 kts 293°
2026-05-07 11:25 49.59648 15.39068 14770 ft 369 kts 293°
2026-05-07 11:26 49.60824 15.35552 14301 ft 367 kts 294°
2026-05-07 11:26 49.61992 15.32057 13829 ft 365 kts 293°
2026-05-07 11:26 49.63152 15.28582 13311 ft 363 kts 294°
2026-05-07 11:26 49.64302 15.25133 12816 ft 361 kts 294°
2026-05-07 11:27 49.65444 15.21702 12344 ft 358 kts 294°
2026-05-07 11:27 49.66576 15.18297 11870 ft 355 kts 294°
2026-05-07 11:27 49.67696 15.14924 11405 ft 352 kts 294°
2026-05-07 11:27 49.68793 15.11619 10990 ft 348 kts 294°
2026-05-07 11:28 49.69881 15.08337 10743 ft 339 kts 294°
2026-05-07 11:28 49.71022 15.05205 10551 ft 330 kts 301°
2026-05-07 11:28 49.72385 15.02412 10411 ft 320 kts 306°
2026-05-07 11:28 49.73776 14.99794 10268 ft 310 kts 306°
2026-05-07 11:29 49.75117 14.97251 10134 ft 300 kts 305°
2026-05-07 11:29 49.76397 14.94758 9998 ft 290 kts 304°
2026-05-07 11:29 49.77620 14.92334 9803 ft 283 kts 304°
2026-05-07 11:29 49.78820 14.89933 9460 ft 281 kts 304°
2026-05-07 11:30 49.80004 14.87556 9151 ft 277 kts 303°
2026-05-07 11:30 49.81172 14.85192 8811 ft 274 kts 303°
2026-05-07 11:30 49.82323 14.82854 8484 ft 272 kts 304°
2026-05-07 11:30 49.83462 14.80542 8178 ft 269 kts 303°
2026-05-07 11:31 49.84595 14.78243 7863 ft 269 kts 304°
2026-05-07 11:31 49.85741 14.75917 7550 ft 274 kts 303°
2026-05-07 11:31 49.86902 14.73549 7220 ft 277 kts 304°
2026-05-07 11:31 49.88074 14.71165 6914 ft 278 kts 304°
2026-05-07 11:32 49.90393 14.66457 6259 ft 272 kts 304°
2026-05-07 11:32 49.91520 14.64163 5931 ft 269 kts 304°
2026-05-07 11:32 49.92598 14.62017 5781 ft 257 kts 304°
2026-05-07 11:33 49.93654 14.59894 5663 ft 246 kts 304°
2026-05-07 11:33 49.94660 14.57840 5555 ft 233 kts 303°
2026-05-07 11:33 49.95612 14.55881 5366 ft 223 kts 303°
2026-05-07 11:33 49.96525 14.54000 5176 ft 213 kts 303°
2026-05-07 11:34 49.97406 14.52185 4886 ft 208 kts 303°
2026-05-07 11:34 49.98267 14.50413 4612 ft 202 kts 303°
2026-05-07 11:34 49.99096 14.48705 4348 ft 194 kts 303°
2026-05-07 11:34 49.99890 14.47067 4095 ft 185 kts 302°
2026-05-07 11:35 50.00633 14.45542 4055 ft 173 kts 302°
2026-05-07 11:35 50.01357 14.44045 3828 ft 173 kts 303°
2026-05-07 11:35 50.02085 14.42537 3606 ft 175 kts 303°
2026-05-07 11:35 50.02824 14.41014 3384 ft 177 kts 303°
2026-05-07 11:36 50.03548 14.39519 3157 ft 169 kts 303°
2026-05-07 11:36 50.04237 14.38104 2937 ft 159 kts 303°
2026-05-07 11:36 50.04886 14.36763 2745 ft 152 kts 302°
2026-05-07 11:36 50.05523 14.35438 2538 ft 155 kts 302°
2026-05-07 11:37 50.06171 14.34115 2319 ft 151 kts 304°
2026-05-07 11:37 50.06797 14.32811 2081 ft 151 kts 302°
2026-05-07 11:37 50.07422 14.31517 1900 ft 151 kts 303°
2026-05-07 11:37 50.08067 14.30199 1637 ft 155 kts 301°
2026-05-07 11:38 50.08713 14.28865 1417 ft 154 kts 301°
2026-05-07 11:38 50.09351 14.27546 1225 ft 150 kts 300°
2026-05-07 11:38 50.09917 14.26353 1203 ft 119 kts 307°
2026-05-07 11:38 50.10323 14.25521 1186 ft 74 kts 307°
2026-05-07 11:39 50.10475 14.25209 1169 ft 17 kts 307°
2026-05-07 11:39 50.10519 14.25146 1169 ft 8 kts 348°
2026-05-07 11:39 50.10561 14.25199 1167 ft 8 kts 67°
2026-05-07 11:39 50.10575 14.25288 1171 ft 8 kts 79°
2026-05-07 11:40 50.10586 14.25378 1174 ft 8 kts 79°
2026-05-07 11:40 50.10597 14.25467 1175 ft 8 kts 76°
2026-05-07 11:40 50.10625 14.25544 1173 ft 8 kts 47°
2026-05-07 11:40 50.10672 14.25603 1173 ft 9 kts 35°
2026-05-07 11:41 50.10728 14.25662 1170 ft 10 kts 34°
2026-05-07 11:41 50.10789 14.25727 1171 ft 11 kts 34°
2026-05-07 11:41 50.10860 14.25803 1167 ft 13 kts 34°
2026-05-07 11:41 50.10941 14.25890 1164 ft 15 kts 35°
2026-05-07 11:42 50.10999 14.25988 1163 ft 12 kts 65°
2026-05-07 11:42 50.11034 14.26106 1163 ft 12 kts 66°
2026-05-07 11:42 50.11069 14.26224 1165 ft 12 kts 64°
2026-05-07 11:42 50.11104 14.26342 1166 ft 12 kts 64°
2026-05-07 11:43 50.11139 14.26458 1170 ft 12 kts 65°
2026-05-07 11:43 50.11175 14.26577 1171 ft 12 kts 64°
2026-05-07 11:43 50.11211 14.26695 1169 ft 12 kts 65°
2026-05-07 11:43 50.11245 14.26811 1171 ft 12 kts 65°
2026-05-07 11:44 50.11281 14.26929 1173 ft 12 kts 65°
2026-05-07 11:44 50.11316 14.27047 1171 ft 12 kts 65°
2026-05-07 11:44 50.11351 14.27163 1171 ft 11 kts 65°
2026-05-07 11:44 50.11377 14.27251 1171 ft 8 kts 65°
2026-05-07 11:45 50.11400 14.27326 1173 ft 6 kts 65°
2026-05-07 11:45 50.11395 14.27372 1172 ft 5 kts 130°
2026-05-07 11:45 50.11367 14.27398 1173 ft 5 kts 153°
2026-05-07 11:45 50.11342 14.27440 1175 ft 6 kts 98°
2026-05-07 11:46 50.11354 14.27500 1174 ft 6 kts 65°
2026-05-07 11:46 50.11371 14.27558 1174 ft 6 kts 65°
2026-05-07 11:46 50.11385 14.27609 1175 ft 4 kts 78°
2026-05-07 11:46 50.11373 14.27655 1173 ft 5 kts 122°
2026-05-07 11:47 50.11356 14.27696 1174 ft 4 kts 124°
2026-05-07 11:47 50.11343 14.27727 1176 ft 3 kts 124°
2026-05-07 11:47 50.11339 14.27736 1176 ft 0 kts 123°